FW5647 Weather Reports


time (UTC)temp
F
wind
direction
speed
knots
gust
knots
rain 1hr
in
rain 24hr
in
rain mn
in
humidity
%
barometer
mb
20260904044541 66 0 0.0 0.9 0.00 0.35 0.00 97 1016.1
20260904043042 66 0 0.0 0.9 0.00 0.35 0.00 97 1016.2
20260904041544 66 0 0.0 0.0 0.00 0.35 0.00 97 1015.8
20260904040045 66 0 0.0 0.0 0.00 0.35 0.00 97 1015.7
20260904034537 66 0 0.0 0.0 0.00 0.35 0.35 97 1015.5
20260904033044 66 0 0.0 0.0 0.00 0.35 0.35 97 1015.3
20260904031541 65 0 0.0 0.0 0.00 0.35 0.35 97 1015.5
20260904030049 65 0 0.0 0.0 0.00 0.35 0.35 97 1015.2
20260904024546 66 0 0.0 0.0 0.00 0.35 0.35 97 1015.2
20260904023041 66 0 0.0 0.0 0.00 0.35 0.35 97 1015.3
20260904021541 66 0 0.0 0.0 0.00 0.35 0.35 97 1015.3
20260904020049 66 0 0.0 0.0 0.00 0.35 0.35 97 1015.4
20260904014602 67 0 0.0 0.0 0.00 0.35 0.35 97 1015.3
20260904013040 67 0 0.0 0.0 0.00 0.35 0.35 97 1015.2
20260904011549 67 0 0.0 0.0 0.00 0.35 0.35 97 1015.4
20260904010052 68 0 0.0 0.0 0.00 0.35 0.35 97 1015.4
20260904004543 68 0 0.0 0.0 0.00 0.35 0.35 97 1015.3
20260904003041 68 0 0.0 0.0 0.00 0.35 0.35 97 1015.1
20260904001542 69 0 0.0 0.0 0.00 0.35 0.35 97 1014.9
20260904000054 69 82 0.0 0.9 0.00 0.35 0.35 97 1014.8
20260903234542 69 0 0.0 2.6 0.00 0.35 0.35 97 1014.4
20260903233043 69 92 0.9 3.5 0.00 0.35 0.35 97 1014.7
20260903231542 69 110 1.7 3.5 0.00 0.35 0.35 97 1014.7
20260903230047 69 198 0.9 4.3 0.00 0.35 0.35 97 1014.9
20260903224542 70 142 0.9 4.3 0.00 0.35 0.35 97 1014.7
20260903223041 70 187 0.9 4.3 0.00 0.35 0.35 97 1014.8
20260903221547 70 94 1.7 3.5 0.00 0.35 0.35 96 1015.0
20260903220052 70 98 1.7 4.3 0.00 0.35 0.35 96 1015.4
20260903214544 70 94 0.9 5.2 0.00 0.35 0.35 96 1016.0
20260903213042 70 0 0.0 0.9 0.00 0.35 0.35 97 1015.9
20260903211547 70 146 2.6 5.2 0.00 0.35 0.35 97 1016.2
20260903210050 70 257 0.0 0.0 0.09 0.35 0.35 97 1016.1
20260903204602 69 335 0.0 0.0 0.18 0.35 0.35 96 1015.4
20260903203041 69 0 0.0 0.0 0.18 0.35 0.35 96 1015.7
20260903201547 69 0 0.0 2.6 0.17 0.34 0.34 95 1015.2
20260903200041 69 0 0.0 4.3 0.08 0.25 0.25 94 1016.3
20260903193142 83 0 0.0 1.7 0.01 0.16 0.16 80 1012.6
20260903191541 86 0 0.0 4.3 0.00 0.15 0.15 75 1013.0
20260903190041 86 238 1.7 4.3 0.00 0.15 0.15 71 1013.8
20260903184543 85 0 0.0 1.7 0.00 0.15 0.15 71 1013.9
20260903183041 84 108 2.6 5.2 0.00 0.15 0.15 69 1014.4
20260903181540 84 0 0.9 5.2 0.00 0.15 0.15 68 1014.6
20260903180040 84 122 0.9 5.2 0.00 0.15 0.15 68 1014.5
20260903174544 83 131 1.7 7.0 0.00 0.15 0.15 68 1014.5
20260903173042 82 0 0.9 5.2 0.00 0.15 0.15 72 1014.6
20260903171545 81 124 0.9 4.3 0.00 0.15 0.15 74 1014.6
20260903170040 80 118 0.9 9.6 0.00 0.15 0.15 77 1014.3
20260903164547 78 129 1.7 5.2 0.00 0.15 0.15 79 1014.5
20260903163049 76 0 2.6 6.1 0.00 0.15 0.15 82 1014.8
20260903161548 75 116 0.0 2.6 0.00 0.15 0.15 86 1015.2
20260903160058 74 0 0.9 5.2 0.00 0.15 0.15 87 1015.7
20260903154543 74 350 0.0 2.6 0.00 0.15 0.15 94 1016.0
20260903153041 74 0 0.0 10.4 0.00 0.15 0.15 94 1015.5
20260903151541 74 319 0.0 1.7 0.00 0.15 0.15 94 1016.1
20260903150058 75 0 0.0 0.0 0.00 0.15 0.15 93 1014.9
20260903144544 75 0 0.0 7.8 0.00 0.15 0.15 93 1014.6
20260903143042 75 0 2.6 7.8 0.00 0.15 0.15 95 1015.5
20260903141543 76 0 0.0 0.0 0.00 0.15 0.15 95 1015.2
20260903140047 76 0 0.0 0.0 0.00 0.15 0.15 95 1014.9
20260903134543 76 0 0.0 0.0 0.00 0.15 0.15 96 1014.7
20260903133042 76 0 0.0 3.5 0.00 0.15 0.15 96 1015.3
20260903131541 75 281 0.0 1.7 0.00 0.15 0.15 97 1015.1
20260903130041 74 0 0.0 0.0 0.00 0.15 0.15 97 1015.1
20260903124551 72 0 0.0 0.0 0.00 0.15 0.15 97 1015.0
20260903123040 71 0 0.0 0.0 0.00 0.15 0.15 97 1015.3
20260903121538 70 0 0.0 0.0 0.00 0.15 0.15 97 1015.2
20260903120057 69 0 0.0 0.0 0.00 0.15 0.15 97 1015.1
20260903114540 68 0 0.0 0.0 0.00 0.15 0.15 96 1015.1
20260903113048 68 0 0.0 0.0 0.00 0.15 0.15 96 1015.1
20260903111546 68 0 0.0 0.0 0.00 0.15 0.15 96 1015.0
20260903110043 68 0 0.0 0.0 0.00 0.15 0.15 96 1014.9
20260903104547 68 0 0.0 0.0 0.00 0.15 0.15 96 1014.9
20260903103040 68 0 0.0 0.0 0.00 0.15 0.15 96 1014.6
20260903101547 68 0 0.0 0.0 0.00 0.15 0.15 96 1014.7
20260903100041 69 0 0.0 0.0 0.00 0.15 0.15 96 1014.6
20260903094543 69 0 0.0 0.0 0.00 0.15 0.15 96 1014.6
20260903093052 69 0 0.0 0.0 0.00 0.15 0.15 96 1014.6
20260903091543 69 0 0.0 0.0 0.00 0.15 0.15 96 1014.6
20260903090042 69 0 0.0 0.0 0.00 0.15 0.15 96 1014.4
20260903084540 70 0 0.0 0.0 0.00 0.15 0.15 96 1014.4
20260903083039 70 0 0.0 0.0 0.00 0.15 0.15 95 1014.2
20260903081542 70 0 0.0 0.0 0.00 0.15 0.15 95 1014.3
20260903080040 70 0 0.0 0.0 0.00 0.15 0.15 95 1014.4
20260903074544 71 0 0.0 0.0 0.00 0.15 0.15 95 1014.3
20260903073050 71 247 0.0 0.9 0.00 0.15 0.15 95 1014.4
20260903071541 71 0 0.0 1.7 0.00 0.15 0.15 95 1014.6
20260903070048 71 0 0.0 0.0 0.00 0.15 0.15 95 1014.5
20260903064543 71 0 0.0 0.0 0.00 0.15 0.15 95 1014.0
20260903063047 71 0 0.0 0.0 0.00 0.15 0.15 94 1014.1
20260903061551 71 0 0.0 0.0 0.00 0.15 0.15 94 1014.0
20260903060043 71 0 0.0 0.0 0.00 0.15 0.15 94 1014.2
20260903054553 72 0 0.0 0.0 0.00 0.15 0.15 94 1014.1
20260903053051 72 0 0.0 0.0 0.00 0.15 0.15 93 1014.1
20260903051544 72 0 0.0 0.0 0.00 0.15 0.15 93 1014.0
20260903050049 72 0 0.0 0.0 0.15 0.15 0.15 93 1014.0